Regional Weather Roundup
Issued by NWS

Home | Current Version | Previous Version | Graphics & Text | Print | Product List | Glossary On
Versions: 1 2 3 4 5 6 7 8 9 10 11 12 13 14 15 16 17 18 19 20 21 22 23 24 25 26 27
000
ASUS45 KSLC 292210
RWRUT

UTAH REGIONAL WEATHER ROUNDUP
NATIONAL WEATHER SERVICE SALT LAKE CITY UT
400 PM MDT FRI APR 29 2016

UTZ001>011-023>025-292300-

NORTHERN UTAH

CITY           SKY/WX    TMP DP  RH WIND       PRES   REMARKS
BRIGHAM CITY   PTSUNNY   55  33  44 S7        29.84F
HILL AFB       PTSUNNY   51  35  54 VRB5      29.84F
LOGAN          MOSUNNY   54  31  41 CALM      29.83F
OGDEN          CLOUDY    53  35  50 VRB5      29.84F
PROVO AIRPORT  PTSUNNY   52  39  62 SW16      29.84F
SALT LAKE CITY PTSUNNY   57  36  45 N6        29.83F
VERNAL         CLOUDY    48  36  63 N18       29.80F
WENDOVER       CLOUDY    57  36  44 S9        29.85F
HEBER CITY     MOSUNNY   50  36  57 CALM      29.82F

$$

UTZ012>022-026-027-292300-

SOUTHERN/CENTRAL UTAH

CITY           SKY/WX    TMP DP  RH WIND       PRES   REMARKS
BLANDING       CLOUDY    45  37  72 E5        29.88F
BRYCE CANYON   MOSUNNY   49  27  42 NW22G28   29.89F
CEDAR CITY     MOSUNNY   54  32  43 CALM      29.87F
DELTA          MOSUNNY   55  32  41 NW9       29.84F
HANKSVILLE     MOSUNNY   61  32  33 NW8       29.79F
MILFORD        PTSUNNY   59  32  36 N16       29.84F
MOAB/CYNLANDS  PTSUNNY   57  34  41 N5        29.76F
PRICE          MOSUNNY   56  29  35 NW10G16   29.78F
ST GEORGE      PTCLDY    64  43  45 E3        29.85F
KANAB          PTSUNNY   55  36  47 NW21      29.89R

$$

REGIONAL REPORTS     COLORADO/ARIZONA

CITY           SKY/WX    TMP DP  RH WIND       PRES   REMARKS
CRAIG, CO      CLOUDY    47  34  60 N13       29.80F
GRAND JUNCTION MOSUNNY   56  37  49 NW17      29.75F
RIFLE          CLOUDY    53  34  48 N12       29.76S
MONTROSE       CLOUDY    49  35  58 W12       29.80F
CORTEZ         SUNNY     55  31  39 NW21G30   29.80F
PAGE, AZ       MOSUNNY   61  34  36 SW12G20   29.80F
GRAND CANYON   PTSUNNY   52  30  43 W12G21    29.91F
KINGMAN        PTSUNNY   69  34  27 W12       29.88F
FLAGSTAFF      CLOUDY    48  31  51 NW9G20    29.93F

$$

REGIONAL REPORTS    NEVADA/IDAHO/WYOMING

CITY           SKY/WX    TMP DP  RH WIND       PRES   REMARKS
LAS VEGAS, NV  PTSUNNY   74  36  25 E6        29.77F
ELY            RAIN      43  36  76 N13       29.92S
ELKO           CLOUDY    46  38  73 SW10      29.91F
POCATELLO, ID  LGT RAIN  45  41  86 NW8       29.86S
BURLEY         TSTM      46  41  82 N15G26    29.83R
EVANSTON, WY   CLOUDY    42  27  55 NW3       29.88F
ROCK SPRINGS   CLOUDY    40  29  64 NE7       29.88F
KEMMERER       CLOUDY    37  28  70 CALM      29.89F

$$




USA.gov is the U.S. government's official web portal to all federal, state and local government web resources and services.